Weather History for Ashtabula, OH

Change the Weather History Date:

Wednesday, March 13, 2013

  Actual Average (KYNG) Record (KYNG)
Temperature  
Mean Temperature 30 °F 36 °F  
Max Temperature 33 °F 44 °F 74 °F (1990)
Min Temperature 26 °F 27 °F 3 °F (2014)
Degree Days  
Heating Degree Days 36 30  
Month to date heating degree days 411  
Since 1 July heating degree days 5059  
Cooling Degree Days 0 0  
Month to date cooling degree days 0  
Year to date cooling degree days 0  
Moisture  
Dew Point 21 °F    
Average Humidity 74    
Maximum Humidity 86    
Minimum Humidity 49    
Precipitation  
Precipitation 0.05 in 0.09 in 0.81 in (1951)
Month to date precipitation 1.13  
Year to date precipitation 5.83  
Snow  
Snow 0.00 in 0.40 in - ()
Month to date snowfall 5.5  
Since 1 July snowfall 54.3  
Snow Depth -    
Sea Level Pressure  
Sea Level Pressure 29.98 in    
Wind  
Wind Speed 11 mph (West)    
Max Wind Speed 21 mph    
Max Gust Speed 30 mph    
Visibility 5 miles    
Events Fog , Snow    
T = Trace of Precipitation, MM = Missing Value Source: NWS Daily Summary

Daily Weather History Graph

Daily Weather History Graph

Search for Another Location

Airport:

Trip Planner

Search our weather history database for the weather conditions in past years. The results will help you decide how hot, cold, wet, or windy it might be!

Date:

Astronomy

Mar. 13, 2013 Rise Set
Actual Time 7:37 AM EDT 7:27 PM EDT
Civil Twilight 7:09 AM EDT 7:55 PM EDT
Nautical Twilight 6:37 AM EDT 8:27 PM EDT
Astronomical Twilight 6:04 AM EDT 9:00 PM EDT
Moon 8:14 AM EDT (3/13) 9:45 PM EDT (3/13)
Length of Visible Light 12h 45m
Length of Day
11h 49m
Waxing Crescent, 4% of the Moon is Illuminated
Mar 13
Waxing Crescent
Mar 19
First Quarter
Mar 27
Full
Apr 3
Last Quarter
Apr 10
New

Hourly Weather History & Observations

Time (EDT) Temp. Windchill Dew Point Humidity Pressure Visibility Wind Dir Wind Speed Gust Speed Precip Events Conditions
12:53 AM 33.1 °F 27.7 °F 23.0 °F 66% 29.96 in 10.0 mi SSW 5.8 mph - N/A   Overcast
1:41 AM 30.2 °F 25.4 °F 23.0 °F 75% 29.93 in 10.0 mi SSW 4.6 mph - N/A   Scattered Clouds
1:53 AM 30.9 °F 26.2 °F 23.0 °F 72% 29.95 in 10.0 mi SSW 4.6 mph - N/A   Partly Cloudy
2:53 AM 30.9 °F 25.2 °F 23.0 °F 72% 29.94 in 10.0 mi SSW 5.8 mph - N/A   Scattered Clouds
3:53 AM 30.0 °F 25.2 °F 23.0 °F 75% 29.92 in 10.0 mi SSW 4.6 mph - N/A   Mostly Cloudy
4:53 AM 30.9 °F 21.2 °F 24.1 °F 76% 29.91 in 5.0 mi WSW 12.7 mph 18.4 mph 0.00 in Snow Light Snow
5:53 AM 30.0 °F 22.4 °F 24.1 °F 79% 29.91 in 10.0 mi SW 8.1 mph - 0.00 in   Overcast
6:53 AM 30.9 °F 23.5 °F 24.1 °F 76% 29.91 in 10.0 mi SW 8.1 mph - N/A   Overcast
7:53 AM 30.9 °F 24.3 °F 24.1 °F 76% 29.91 in 10.0 mi SW 6.9 mph - N/A   Overcast
8:53 AM 30.9 °F 22.8 °F 24.1 °F 76% 29.91 in 6.0 mi WSW 9.2 mph - 0.00 in Snow Light Snow
9:03 AM 30.2 °F 21.3 °F 24.8 °F 80% 29.89 in 7.0 mi WSW 10.4 mph - 0.00 in Snow Light Snow
9:22 AM 30.2 °F 18.9 °F 21.2 °F 69% 29.89 in 7.0 mi West 16.1 mph 26.5 mph 0.00 in Snow Light Snow
9:41 AM 30.2 °F 18.1 °F 21.2 °F 69% 29.90 in 1.5 mi West 18.4 mph 27.6 mph 0.00 in Snow Light Snow
9:43 AM 30.2 °F 18.9 °F 21.2 °F 69% 29.90 in 0.8 mi West 16.1 mph 27.6 mph 0.00 in Snow Light Snow
9:53 AM 28.9 °F 17.7 °F 23.0 °F 78% 29.93 in 0.5 mi WSW 15.0 mph 24.2 mph 0.00 in Snow Snow
9:56 AM 30.2 °F 20.2 °F 23.0 °F 75% 29.90 in 1.0 mi West 12.7 mph - 0.00 in Snow Light Snow
9:59 AM 30.2 °F 20.2 °F 23.0 °F 75% 29.90 in 3.0 mi WSW 12.7 mph - 0.00 in Snow Light Snow
10:53 AM 30.0 °F 20.0 °F 21.9 °F 72% 29.95 in 4.0 mi West 12.7 mph 25.3 mph 0.00 in Snow Light Snow
11:20 AM 28.4 °F 19.1 °F 23.0 °F 80% 29.93 in 1.8 mi WNW 10.4 mph - 0.00 in Snow Light Snow
11:22 AM 28.4 °F 17.0 °F 24.8 °F 86% 29.93 in 1.0 mi West 15.0 mph 20.7 mph 0.00 in Snow Light Snow
11:27 AM 28.4 °F 15.4 °F 24.8 °F 86% 29.93 in 0.2 mi West 19.6 mph 25.3 mph 0.00 in Snow Heavy Snow
11:34 AM 28.4 °F 18.0 °F 21.2 °F 74% 29.93 in 0.5 mi West 12.7 mph 25.3 mph 0.00 in Snow Snow
11:38 AM 28.4 °F 18.5 °F 21.2 °F 74% 29.93 in 1.5 mi West 11.5 mph 18.4 mph 0.00 in Snow Light Snow
11:40 AM 28.4 °F 17.0 °F 21.2 °F 74% 29.93 in 4.0 mi WNW 15.0 mph 19.6 mph 0.00 in Snow Light Snow
11:49 AM 28.4 °F 16.6 °F 21.2 °F 74% 29.94 in 1.0 mi West 16.1 mph 26.5 mph 0.00 in Snow Light Snow
11:53 AM 28.0 °F 16.1 °F 21.9 °F 78% 29.97 in 0.5 mi West 16.1 mph 26.5 mph 0.00 in Snow Snow
12:10 PM 28.4 °F 19.1 °F 23.0 °F 80% 29.94 in 1.2 mi West 10.4 mph 18.4 mph 0.00 in Snow Light Snow
12:16 PM 28.4 °F 16.6 °F 21.2 °F 74% 29.94 in 0.8 mi WNW 16.1 mph 20.7 mph 0.00 in Snow Light Snow
12:32 PM 28.4 °F 19.7 °F 23.0 °F 80% 29.94 in 1.0 mi West 9.2 mph - 0.01 in Snow Light Snow
12:53 PM 28.0 °F 18.1 °F 24.1 °F 85% 29.97 in 0.5 mi West 11.5 mph 18.4 mph 0.02 in Fog , Snow Light Snow
1:04 PM 28.4 °F 15.1 °F 23.0 °F 80% 29.95 in 0.2 mi West 20.7 mph 26.5 mph 0.01 in Snow Heavy Snow
1:10 PM 28.4 °F 17.0 °F 23.0 °F 80% 29.95 in 1.2 mi West 15.0 mph 26.5 mph 0.01 in Snow Light Snow
1:24 PM 28.4 °F 16.6 °F 23.0 °F 80% 29.96 in 0.8 mi West 16.1 mph 23.0 mph 0.01 in Snow Light Snow
1:41 PM 28.4 °F 17.5 °F 21.2 °F 74% 29.96 in 1.2 mi WNW 13.8 mph - 0.01 in Snow Light Snow
1:44 PM 28.4 °F 18.0 °F 21.2 °F 74% 29.96 in 2.5 mi West 12.7 mph - 0.01 in Snow Light Snow
1:51 PM 28.4 °F 17.0 °F 19.4 °F 69% 29.97 in 9.0 mi West 15.0 mph 23.0 mph 0.01 in   Overcast
1:53 PM 28.9 °F 17.7 °F 19.0 °F 67% 30.00 in 9.0 mi WNW 15.0 mph 25.3 mph 0.01 in   Overcast
2:09 PM 28.4 °F 15.1 °F 15.8 °F 59% 29.97 in 10.0 mi West 20.7 mph 29.9 mph N/A   Overcast
2:53 PM 28.9 °F 17.3 °F 17.1 °F 61% 30.01 in 5.0 mi West 16.1 mph 26.5 mph 0.00 in Snow Light Snow
3:53 PM 28.0 °F 14.6 °F 17.1 °F 63% 30.02 in 5.0 mi West 20.7 mph 28.8 mph 0.00 in Snow Light Snow
4:00 PM 26.6 °F 13.8 °F 19.4 °F 74% 29.99 in 2.0 mi West 17.3 mph 25.3 mph 0.00 in Snow Light Snow
4:02 PM 26.6 °F 13.1 °F 19.4 °F 74% 29.99 in 1.0 mi West 19.6 mph 26.5 mph 0.00 in Snow Light Snow
4:09 PM 26.6 °F 14.3 °F 19.4 °F 74% 30.00 in 0.5 mi West 16.1 mph 26.5 mph 0.00 in Snow Snow
4:26 PM 26.6 °F 15.7 °F 21.2 °F 80% 30.00 in 1.0 mi West 12.7 mph 21.9 mph 0.00 in Snow Light Snow
4:33 PM 26.6 °F 15.2 °F 21.2 °F 80% 30.00 in 0.5 mi WNW 13.8 mph 21.9 mph 0.00 in Snow Snow
4:40 PM 26.6 °F 14.7 °F 21.2 °F 80% 30.01 in 0.2 mi West 15.0 mph 25.3 mph 0.00 in Snow Heavy Snow
4:53 PM 26.1 °F 14.0 °F 21.0 °F 81% 30.04 in 0.8 mi West 15.0 mph 24.2 mph 0.01 in Snow Light Snow
5:14 PM 26.6 °F 16.2 °F 21.2 °F 80% 30.02 in 0.5 mi WNW 11.5 mph 24.2 mph 0.00 in Snow Snow
5:23 PM 26.6 °F 14.7 °F 19.4 °F 74% 30.02 in 1.5 mi West 15.0 mph 23.0 mph 0.00 in Snow Light Snow
5:25 PM 26.6 °F 14.7 °F 19.4 °F 74% 30.02 in 3.0 mi WNW 15.0 mph 23.0 mph 0.00 in Snow Light Snow
5:32 PM 26.6 °F 13.8 °F 19.4 °F 74% 30.02 in 9.0 mi WNW 17.3 mph 24.2 mph 0.00 in   Overcast
5:50 PM 26.6 °F 14.3 °F 17.6 °F 69% 30.02 in 9.0 mi WNW 16.1 mph 26.5 mph 0.00 in   Overcast
5:53 PM 27.0 °F 14.3 °F 18.0 °F 69% 30.05 in 9.0 mi WNW 17.3 mph 25.3 mph 0.00 in   Overcast
6:11 PM 26.6 °F 14.7 °F 17.6 °F 69% 30.03 in 9.0 mi NW 15.0 mph 26.5 mph N/A   Overcast
6:19 PM 26.6 °F 15.2 °F 17.6 °F 69% 30.03 in 10.0 mi WNW 13.8 mph 26.5 mph N/A   Overcast
6:42 PM 26.6 °F 14.7 °F 19.4 °F 74% 30.04 in 5.0 mi WNW 15.0 mph 24.2 mph 0.00 in Snow Light Snow
6:53 PM 27.0 °F 16.1 °F 19.9 °F 75% 30.07 in 4.0 mi WNW 12.7 mph - 0.00 in Snow Light Snow
7:15 PM 26.6 °F 15.7 °F 19.4 °F 74% 30.04 in 10.0 mi WNW 12.7 mph 27.6 mph 0.00 in   Overcast
7:32 PM 26.6 °F 16.8 °F 19.4 °F 74% 30.05 in 2.5 mi West 10.4 mph 24.2 mph 0.01 in Snow Light Snow
7:48 PM 26.6 °F 15.2 °F 19.4 °F 74% 30.05 in 9.0 mi WNW 13.8 mph 20.7 mph 0.01 in Snow Light Snow
7:53 PM 27.0 °F 16.1 °F 19.9 °F 75% 30.09 in 9.0 mi WNW 12.7 mph 20.7 mph 0.01 in   Overcast
8:37 PM 26.6 °F 16.2 °F 19.4 °F 74% 30.06 in 10.0 mi West 11.5 mph 18.4 mph N/A   Overcast
8:50 PM 28.4 °F 19.1 °F 19.4 °F 69% 30.06 in 9.0 mi WNW 10.4 mph 20.7 mph 0.00 in Snow Light Snow
8:53 PM 28.0 °F 18.6 °F 19.0 °F 69% 30.09 in 9.0 mi WNW 10.4 mph 20.7 mph 0.00 in Snow Light Snow
9:53 PM 28.0 °F 18.1 °F 18.0 °F 66% 30.10 in 10.0 mi West 11.5 mph - N/A   Overcast
10:53 PM 28.9 °F 18.2 °F 18.0 °F 64% 30.11 in 10.0 mi WNW 13.8 mph - N/A   Overcast
11:53 PM 30.0 °F 18.7 °F 12.9 °F 49% 30.12 in 10.0 mi WNW 16.1 mph 27.6 mph N/A   Mostly Cloudy